Wind_Speed
16 15 14 13 12 11 10 9 8 7 7 7 7 8 7 5 5 5 4 3 2 3 4 3 5 4 4 2 1 7 10 6 4 1 16 11 13 11 9 5 6 6 8 8 8
17 18 18 16 16 15 14 13 11 10 9 8 8 9 8 6 4 6 7 7 7 5 4 3 5 5 6 4 5 6 6 8 5 4 3 10 4 9 12 8 5 5 6 7 6
18 18 18 18 18 17 18 18 17 14 13 11 10 8 9 8 7 8 7 8 8 7 7 5 4 5 6 7 5 6 8 6 8 6 3 6 6 6 7 12 7 7 5 4 4
19 18 18 18 18 18 17 17 17 18 16 15 14 12 9 8 7 9 10 10 9 9 8 5 5 5 6 7 8 6 12 9 5 4 6 6 11 9 5 11 9 8 7 6 6
19 20 19 18 18 18 18 18 18 17 17 18 17 15 12 11 8 9 9 10 10 10 8 7 6 6 7 8 9 5 12 6 5 10 11 8 5 6 7 10 9 9 8 6 7
19 19 20 20 20 20 20 20 20 20 20 20 19 18 17 15 11 11 9 10 11 11 10 9 10 10 9 9 11 12 10 8 12 11 8 6 4 11 14 13 12 11 12 11 10
19 19 19 19 19 20 20 20 20 21 22 22 23 22 21 17 15 13 11 12 12 11 11 11 10 11 9 10 10 9 9 6 12 9 9 5 3 6 16 12 11 11 11 11 10
21 20 20 19 18 19 19 20 20 21 23 24 24 24 25 20 19 17 15 13 11 9 10 10 10 11 12 12 7 8 10 8 18 14 13 2 2 11 8 9 8 10 12 13 13
22 22 21 20 19 19 19 20 21 22 23 23 24 24 26 23 24 21 19 16 12 11 9 9 9 11 10 10 4 10 7 14 16 12 8 6 11 10 13 6 9 11 14 16 15
24 24 24 23 22 21 20 20 21 22 22 23 23 24 24 25 23 23 23 19 16 12 10 8 9 12 13 11 5 11 9 16 8 16 9 6 5 7 8 16 12 14 15 14 14
25 25 25 25 24 24 22 21 22 22 22 21 20 23 20 22 23 25 24 23 20 16 11 11 13 11 14 14 18 16 10 10 9 20 14 7 8 9 10 12 19 12 17 16 12
26 26 25 25 24 23 22 21 22 21 21 20 19 19 18 18 20 23 25 26 24 19 18 14 10 12 18 19 18 19 19 14 11 20 11 8 9 9 8 12 18 17 20 13 14
26 25 25 25 24 23 22 21 21 22 22 20 18 17 15 16 17 19 23 25 26 26 22 17 13 19 20 22 20 21 15 12 10 17 5 5 4 10 6 19 20 18 17 14 13
25 25 25 24 24 23 22 21 22 23 22 22 21 18 16 16 17 16 17 22 27 26 26 23 20 23 23 22 22 19 16 16 21 14 6 7 12 19 7 14 13 19 14 14 12
25 25 26 25 24 24 23 23 23 23 20 28 22 18 17 18 14 17 19 19 21 26 30 25 25 23 26 23 18 19 16 18 18 13 10 8 9 17 12 7 13 14 12 8 7
25 25 26 26 25 25 25 25 25 25 27 27 23 21 20 19 18 17 19 20 19 24 30 30 29 29 26 21 21 17 20 20 18 12 12 10 15 6 22 5 14 16 9 5 6
23 24 25 26 25 25 25 25 26 25 32 30 27 21 21 22 22 20 19 19 20 22 22 26 33 31 29 24 24 23 20 19 18 14 12 12 17 18 6 11 23 8 12 5 4
22 22 22 22 22 23 23 24 26 32 30 30 24 25 24 25 24 23 23 21 19 21 19 21 30 34 31 29 24 24 22 22 18 13 13 22 15 19 15 17 16 13 10 7 5
18 18 18 18 19 20 21 20 22 32 29 26 26 25 25 27 27 28 26 26 24 23 22 17 23 20 36 36 29 25 28 23 22 18 15 18 13 15 18 11 14 6 10 10 6
14 15 16 16 17 17 19 22 24 23 23 25 24 28 21 24 29 28 28 27 27 27 27 26 23 22 28 36 37 31 22 24 26 26 25 18 17 11 15 13 12 4 5 8 10
11 12 14 15 16 17 19 24 21 22 23 23 25 28 25 31 29 20 27 26 29 28 31 28 24 22 25 37 37 36 33 28 24 24 22 18 16 17 23 18 14 9 5 10 17
12 13 13 15 16 18 20 22 21 22 22 22 23 23 25 28 29 28 21 24 24 29 29 29 26 26 25 26 37 38 32 29 25 27 24 20 21 20 20 14 12 16 9 21 15
9 12 14 15 16 18 19 20 20 20 21 23 23 24 26 27 28 27 19 27 32 25 28 24 30 27 24 27 25 38 41 34 27 24 25 24 26 14 14 22 24 18 15 22 19
7 8 9 11 13 15 16 17 19 19 20 22 23 26 26 25 25 23 20 18 25 26 29 27 27 27 28 24 25 29 38 34 31 31 27 26 20 18 19 17 17 15 15 19 21
5 7 7 8 10 12 14 15 16 18 19 20 22 23 22 23 23 20 25 24 28 28 27 27 28 24 28 27 24 27 32 39 35 35 32 25 26 24 20 17 25 27 27 25 20
7 7 7 9 10 10 11 12 13 14 15 17 19 21 21 23 23 25 33 32 36 37 23 22 23 24 25 27 30 29 27 29 35 32 34 31 27 22 25 31 33 37 26 23 22
9 9 9 9 10 11 11 11 11 13 14 16 18 20 22 25 33 34 32 35 19 22 14 22 21 23 26 25 29 36 31 30 26 31 30 33 31 29 27 28 39 33 24 20 18
Wind_Direction
244 244 244 247 243 246 250 252 254 260 261 259 258 263 263 251 243 241 235 240 219 169 148 142 118 121 154 218 94 60 140 116 100 51 328 18 338 5 358 330 312 312 314 314 309
242 242 243 244 248 250 253 253 254 256 257 257 253 256 262 265 249 237 234 237 239 228 200 178 146 145 148 173 161 107 20 129 259 158 325 340 12 8 17 353 329 297 311 316 308
247 244 242 243 245 247 251 255 254 254 256 256 257 254 255 255 253 256 248 245 242 235 226 211 179 167 156 165 200 173 233 242 261 279 277 282 340 331 10 312 306 282 284 321 308
242 245 244 241 239 240 242 244 249 251 253 255 256 255 251 245 238 246 253 257 252 250 248 233 211 186 165 182 205 196 224 255 278 251 311 355 288 350 271 273 282 283 280 295 315
247 244 243 243 243 243 244 246 247 246 246 250 254 255 255 254 250 244 242 247 254 256 247 237 229 213 193 194 199 183 264 262 261 284 293 244 282 246 287 275 266 264 268 269 285
250 248 246 248 249 249 248 248 248 247 246 246 249 251 250 250 246 248 244 246 249 251 252 241 230 228 229 206 217 222 237 229 261 274 294 277 272 295 277 269 277 267 261 259 265
250 249 248 248 249 251 251 250 250 250 248 245 247 249 249 247 244 248 241 242 241 247 248 244 235 230 232 235 227 232 234 271 284 268 247 325 318 262 267 271 278 276 267 269 268
249 248 249 249 250 253 254 255 254 252 251 249 246 247 249 247 247 243 246 245 250 249 252 248 238 233 232 242 230 213 231 232 216 266 300 202 340 288 267 282 285 283 285 292 301
252 249 248 249 252 255 258 260 258 256 253 250 248 247 248 245 242 243 244 247 248 249 246 248 234 230 227 236 249 272 223 238 283 293 252 256 190 230 305 280 287 292 297 311 333
253 252 250 249 252 257 261 261 259 255 252 249 247 248 247 246 244 241 243 245 244 245 246 239 229 223 220 212 221 239 248 283 245 255 256 232 258 253 266 286 284 286 293 310 334
253 254 252 251 251 255 259 260 254 249 247 245 243 247 238 244 242 241 241 241 242 243 245 241 234 233 224 226 208 237 214 238 250 242 236 244 251 241 232 279 280 272 291 322 343
252 253 252 251 252 253 255 255 251 243 241 240 241 244 243 247 244 242 241 242 243 240 239 240 241 233 224 216 230 243 231 236 248 271 231 244 252 229 239 262 257 282 294 317 343
249 250 249 249 251 251 252 248 240 237 235 238 239 239 239 241 244 245 242 240 240 237 239 236 227 237 231 226 225 236 227 238 240 259 232 250 356 306 273 270 266 294 297 316 331
249 247 246 246 247 247 244 240 234 232 236 238 239 239 238 243 244 250 245 241 240 239 237 235 227 237 235 230 226 224 242 216 242 245 248 239 261 238 271 249 306 291 295 305 307
248 246 245 243 244 244 239 232 232 231 237 240 241 243 239 242 249 245 244 244 244 238 237 238 232 240 240 239 232 224 218 238 251 244 243 271 276 308 299 261 259 270 282 275 347
247 244 243 242 241 241 238 232 230 231 237 243 242 242 237 238 237 245 244 242 239 238 237 234 236 231 237 236 233 223 225 240 239 247 252 259 229 256 253 232 273 275 271 295 10
248 245 244 244 244 242 238 233 228 227 236 242 242 239 237 238 241 241 243 243 245 248 245 238 239 236 234 232 231 226 225 230 242 238 243 239 226 238 192 257 266 241 262 289 347
249 245 243 242 241 238 234 231 227 228 235 241 240 240 241 239 238 239 238 240 239 245 240 247 243 236 233 235 238 237 227 227 226 229 236 227 249 228 238 242 262 266 256 284 317
248 243 240 237 235 231 230 229 222 233 238 240 239 243 245 243 240 241 240 240 241 240 239 233 253 241 238 228 230 226 234 225 224 231 237 267 226 239 229 232 250 252 232 262 265
245 241 238 236 232 229 228 229 238 238 237 239 238 241 231 254 240 241 243 241 240 241 238 228 235 227 244 231 225 226 225 233 226 223 235 235 264 243 231 211 224 260 243 259 247
249 243 240 236 232 230 231 236 237 237 238 238 237 246 238 239 250 239 238 242 241 236 242 233 233 231 234 239 228 226 225 224 227 225 228 243 248 244 241 226 217 237 243 244 245
252 246 240 238 236 236 239 244 245 245 244 243 242 243 245 243 244 237 236 229 239 227 236 235 233 240 232 237 235 224 231 226 227 218 223 222 243 190 221 231 226 216 229 249 247
258 249 243 243 242 242 247 250 252 253 250 248 246 244 245 244 245 238 231 226 241 231 226 232 231 231 233 231 242 228 227 232 222 223 228 228 225 252 263 263 227 237 239 261 253
268 260 252 251 251 253 255 256 258 254 251 249 249 251 248 243 242 231 234 245 229 227 228 231 226 233 233 237 231 242 225 223 223 219 223 228 226 230 239 260 241 231 242 246 241
292 268 265 265 267 265 261 258 260 260 253 252 252 250 242 237 233 241 236 227 247 234 225 228 234 230 236 224 226 233 246 234 222 221 222 228 234 235 245 249 243 237 232 242 248
280 276 269 266 272 273 270 264 262 262 257 249 244 244 239 235 226 222 228 233 223 246 220 228 238 231 237 232 228 227 221 238 232 228 222 220 221 221 243 240 249 254 240 241 241
280 274 270 273 275 275 275 274 271 264 260 252 255 244 240 241 238 234 230 258 240 244 202 216 235 243 239 236 235 228 220 221 223 230 228 222 226 229 232 254 246 246 242 239 238
Height
5892 5893 5895 5896 5898 5899 5900 5901 5902 5903 5903 5904 5905 5906 5907 5909 5911 5911 5912 5913 5915 5916 5917 5917 5916 5917 5918 5919 5921 5921 5917 5918 5922 5920 5918 5917 5917 5915 5915 5915 5915 5913 5911 5910 5909
5890 5891 5893 5894 5895 5896 5897 5899 5901 5902 5903 5903 5904 5905 5906 5907 5909 5910 5911 5912 5913 5914 5916 5917 5918 5917 5918 5919 5921 5923 5913 5917 5920 5923 5922 5918 5918 5916 5921 5916 5915 5913 5911 5909 5907
5887 5888 5890 5891 5893 5894 5895 5897 5898 5900 5901 5902 5903 5904 5905 5906 5907 5907 5909 5910 5911 5913 5914 5916 5918 5919 5918 5920 5921 5923 5919 5921 5921 5920 5922 5921 5918 5918 5920 5917 5915 5913 5911 5909 5907
5885 5886 5886 5888 5890 5892 5894 5895 5896 5896 5898 5899 5900 5902 5903 5904 5908 5906 5908 5909 5909 5910 5912 5914 5916 5918 5920 5920 5920 5921 5921 5921 5919 5918 5920 5921 5918 5920 5918 5916 5915 5913 5911 5909 5908
5880 5882 5884 5885 5887 5889 5890 5892 5893 5894 5896 5897 5898 5899 5901 5902 5904 5905 5906 5907 5908 5909 5911 5913 5914 5916 5918 5920 5919 5920 5920 5919 5919 5918 5918 5919 5919 5920 5916 5914 5914 5912 5910 5909 5908
5877 5879 5880 5882 5883 5885 5886 5888 5890 5891 5892 5894 5895 5896 5898 5900 5901 5902 5903 5904 5906 5907 5908 5911 5912 5914 5915 5918 5918 5918 5918 5919 5919 5918 5920 5918 5921 5918 5916 5913 5912 5911 5909 5908 5907
5874 5876 5877 5879 5880 5881 5882 5884 5886 5887 5889 5890 5891 5892 5894 5898 5898 5899 5901 5903 5905 5905 5906 5908 5910 5912 5914 5915 5916 5917 5918 5919 5919 5919 5921 5917 5916 5918 5914 5912 5911 5909 5908 5907 5906
5870 5872 5874 5875 5877 5878 5879 5880 5881 5882 5884 5885 5886 5888 5889 5893 5894 5896 5899 5901 5901 5903 5904 5906 5907 5909 5910 5913 5914 5917 5918 5923 5918 5917 5917 5917 5910 5917 5907 5911 5910 5909 5908 5906 5906
5866 5867 5869 5871 5873 5874 5875 5876 5876 5877 5879 5880 5882 5883 5884 5889 5890 5893 5895 5897 5899 5901 5903 5904 5905 5907 5909 5911 5917 5919 5922 5921 5919 5916 5919 5916 5917 5920 5913 5913 5910 5909 5907 5906 5906
5861 5863 5865 5867 5868 5869 5871 5871 5872 5872 5874 5875 5877 5880 5881 5883 5886 5889 5891 5893 5896 5898 5900 5902 5903 5904 5906 5912 5920 5920 5924 5919 5922 5917 5916 5916 5917 5919 5919 5915 5913 5908 5907 5906 5905
5856 5857 5859 5861 5863 5864 5866 5867 5869 5869 5869 5871 5873 5873 5876 5878 5881 5883 5886 5888 5891 5895 5898 5899 5900 5902 5904 5910 5915 5917 5918 5919 5920 5916 5915 5914 5915 5917 5918 5917 5913 5910 5905 5906 5905
5850 5852 5854 5856 5858 5859 5860 5862 5863 5865 5866 5867 5868 5869 5872 5873 5876 5878 5881 5884 5887 5892 5893 5897 5898 5899 5901 5907 5911 5914 5914 5916 5917 5913 5912 5912 5912 5914 5916 5917 5914 5911 5906 5906 5904
5844 5846 5848 5850 5852 5854 5855 5857 5858 5860 5862 5863 5864 5866 5868 5870 5871 5873 5876 5880 5883 5885 5890 5893 5897 5895 5897 5901 5905 5908 5911 5915 5918 5912 5911 5912 5913 5912 5915 5912 5909 5908 5907 5904 5903
5837 5840 5842 5844 5848 5848 5850 5852 5854 5856 5858 5860 5860 5862 5865 5866 5868 5870 5872 5875 5877 5881 5885 5888 5892 5892 5894 5896 5901 5904 5908 5910 5910 5909 5914 5914 5915 5903 5912 5912 5910 5907 5906 5904 5901
5831 5833 5835 5838 5840 5843 5846 5847 5849 5852 5855 5853 5856 5859 5861 5863 5866 5866 5868 5869 5873 5876 5880 5885 5887 5889 5890 5894 5897 5901 5907 5909 5906 5908 5911 5914 5915 5911 5912 5912 5909 5905 5904 5902 5900
5825 5827 5829 5832 5834 5836 5839 5842 5845 5849 5848 5848 5851 5853 5856 5858 5860 5862 5863 5865 5868 5870 5873 5878 5881 5884 5886 5890 5893 5897 5901 5904 5903 5904 5908 5911 5911 5911 5903 5906 5904 5902 5903 5902 5899
5819 5821 5823 5825 5828 5830 5832 5836 5840 5842 5841 5844 5845 5849 5851 5853 5855 5857 5859 5860 5863 5865 5868 5872 5875 5879 5882 5885 5889 5892 5897 5900 5903 5904 5907 5910 5909 5911 5904 5906 5903 5903 5902 5901 5900
5814 5815 5817 5819 5821 5823 5826 5830 5833 5832 5835 5837 5841 5843 5846 5848 5850 5852 5854 5856 5858 5860 5863 5865 5868 5873 5878 5882 5885 5887 5892 5897 5900 5904 5906 5904 5904 5906 5907 5903 5901 5901 5901 5900 5899
5809 5810 5812 5814 5816 5818 5822 5824 5827 5825 5829 5833 5836 5838 5839 5841 5844 5846 5848 5851 5853 5855 5859 5865 5866 5869 5867 5874 5879 5884 5884 5892 5897 5901 5902 5890 5899 5898 5900 5900 5900 5901 5901 5899 5899
5805 5807 5809 5810 5812 5814 5817 5818 5819 5822 5825 5827 5830 5831 5835 5834 5837 5840 5841 5845 5847 5849 5851 5855 5859 5863 5862 5865 5871 5875 5885 5886 5888 5893 5895 5898 5897 5900 5897 5898 5900 5900 5901 5899 5898
5803 5804 5805 5807 5808 5810 5812 5812 5815 5816 5819 5821 5823 5824 5828 5827 5829 5834 5836 5838 5839 5842 5842 5847 5852 5856 5858 5857 5866 5870 5872 5878 5886 5890 5893 5895 5898 5897 5893 5893 5896 5899 5898 5898 5893
5800 5801 5801 5802 5805 5805 5806 5808 5810 5811 5813 5815 5817 5818 5820 5820 5822 5825 5828 5829 5829 5833 5835 5839 5843 5847 5852 5853 5855 5862 5867 5872 5877 5884 5888 5891 5893 5882 5887 5890 5894 5895 5895 5889 5890
5796 5797 5797 5798 5800 5800 5801 5802 5803 5805 5806 5808 5810 5811 5812 5814 5816 5818 5821 5820 5821 5825 5828 5832 5834 5839 5844 5849 5849 5853 5860 5864 5871 5880 5882 5885 5889 5885 5885 5882 5886 5887 5890 5886 5887
5794 5794 5794 5794 5795 5796 5796 5797 5797 5799 5800 5801 5802 5803 5805 5807 5809 5811 5813 5815 5816 5817 5819 5823 5827 5831 5836 5844 5850 5848 5850 5857 5864 5871 5877 5880 5885 5880 5881 5881 5881 5883 5884 5884 5883
5792 5792 5791 5792 5791 5791 5791 5792 5792 5792 5793 5794 5795 5796 5798 5801 5803 5807 5807 5810 5809 5811 5813 5815 5817 5824 5828 5834 5840 5845 5845 5846 5853 5861 5869 5876 5878 5880 5880 5880 5876 5873 5875 5877 5879
5790 5789 5789 5788 5788 5788 5787 5788 5787 5787 5788 5788 5789 5790 5792 5794 5797 5798 5797 5797 5796 5797 5805 5809 5811 5814 5819 5824 5830 5833 5840 5842 5845 5853 5858 5865 5871 5875 5868 5869 5870 5869 5870 5872 5874
5786 5786 5786 5786 5784 5784 5784 5783 5783 5782 5783 5782 5783 5783 5785 5786 5785 5788 5790 5790 5771 5790 5799 5803 5809 5809 5810 5817 5821 5822 5828 5835 5840 5846 5850 5855 5861 5864 5864 5860 5858 5863 5865 5867 5869